Hlavní strana
METAR-TAF:

METAR-TAF

Letiště :

Huntsville, Alabama, Spojené státy americké

zeměpisná šířka: 34-51-41N, zeměpisná délka: 086-33-26W, výška: 230 m

Aktuální stav počasí

Zpráva byla vytvořena před 15 minutami, v 23:15 UTC
Východojihovýchodní vítr 3 kt
Teplota 7°C
Vlhkost vzduchu 81%
Tlak 1016 hPa
Viditelnost: 16.1 km
Zataženo ve výšce 6000 ft

METAR: KMDQ 262315Z AUTO 12003KT 10SM OVC060 07/04 A3001 RMK A02 T00720037

Čas: 17:30 (23:30 UTC)


TAF: chybějící

Stav a předpovědi počasí z více než 4 000 letišť (zprávy METAR a TAF).

Červené a žluté tečky na mapě představují dostupné meteorologické stanice.

Když kurzor umístíte na tečku, zobrazí se název stanice.

Pak kliknutím zobrazíte stav a předpověď počasí.

Chcete-li změnit mapu, kliknutím na zelené tlačítko se znaménkem +mapu přiblížíte, kliknutím na zelené tlačítko se znaménkem – mapu oddálíte a kliknutím na zelené šipky přejdete na sousední mapy.


METAR-TAF: